Regional Weather Roundup
Issued by NWS

Home | Current Version | Previous Version | Text Only | Print | Product List | Glossary On
Versions: 1 2 3 4 5 6 7 8 9 10 11 12 13 14 15 16 17 18 19 20 21 22 23 24 25 26 27 28 29 30 31 32 33 34 35 36 37 38 39 40 41 42 43 44 45 46 47 48 49 50
502
ASUS45 KSLC 101610
RWRUT

UTAH REGIONAL WEATHER ROUNDUP
NATIONAL WEATHER SERVICE SALT LAKE CITY UT
900 AM MST WED FEB 10 2016

UTZ001>011-023>025-101700-

NORTHERN UTAH

CITY           SKY/WX    TMP DP  RH WIND       PRES   REMARKS
BRIGHAM CITY   CLOUDY    22  20  91 CALM      30.49F VSB 3/4
DUGWAY         FOG       27  27  99 SE7       30.48  VSB 5/8 WCI  19
HILL AFB       NOT AVBL
LOGAN          LGT SNOW   6   5  95 SW3       30.48F VSB 3/4
OGDEN          CLOUDY    24  21  88 S8        30.45F WCI  15
PROVO AIRPORT  FOG      N/A N/A N/A CALM      30.48S VSB 1/4
SALT LAKE CITY FOG       29  28  96 CALM      30.48R VSB 1/2
VERNAL         CLOUDY    13  11  92 CALM      30.49S FOG
WENDOVER       CLOUDY    28  25  86 S3        30.49R
HEBER CITY     FOG       10   9  92 CALM      30.45R VSB<1/4
WEST JORDAN    CLOUDY    25  25 100 CALM      30.48R VSB 0

$$

UTZ012>022-026-027-101700-

SOUTHERN/CENTRAL UTAH

CITY           SKY/WX    TMP DP  RH WIND       PRES   REMARKS
BLANDING       MOSUNNY   33  20  57 CALM      30.55R
BRYCE CANYON   PTSUNNY   16   5  62 CALM      30.49R
CEDAR CITY     MOSUNNY   21  19  92 CALM      30.42S
DELTA          CLOUDY     9   7  92 CALM      30.49R
HANKSVILLE     PTSUNNY   27  25  93 CALM      30.53R
MILFORD        FOG        9   6  88 CALM      30.47R VSB 1/4
MOAB/CYNLANDS  MOSUNNY   22  21  96 CALM      30.48R
PRICE          MOSUNNY   30  19  63 CALM      30.45R
ST GEORGE      MOSUNNY   37  25  60 SW3       30.45R
KANAB          SUNNY     39  27  60 N6        30.48R WCI  35

$$

REGIONAL REPORTS     COLORADO/ARIZONA

CITY           SKY/WX    TMP DP  RH WIND       PRES   REMARKS
CRAIG, CO      FOG        3   2  95 CALM      30.44S VSB 1
GRAND JUNCTION CLOUDY    25  21  85 E7        30.49R WCI  17
RIFLE          CLOUDY    20  14  77 CALM      30.50S
MONTROSE       CLOUDY    25  14  63 S5        30.50S WCI  19
CORTEZ         CLOUDY    28  17  63 E3        30.48R
PAGE, AZ       SUNNY     38  28  67 W3        30.48R
GRAND CANYON   SUNNY     39  22  50 CALM      30.47R
KINGMAN        PTSUNNY   49  24  37 E5        30.34R
FLAGSTAFF      MOSUNNY   33  20  58 CALM      30.48R

$$

REGIONAL REPORTS    NEVADA/IDAHO/WYOMING

CITY           SKY/WX    TMP DP  RH WIND       PRES   REMARKS
LAS VEGAS, NV  MOSUNNY   53  28  38 CALM      30.30R
ELY            PTSUNNY   12   4  70 S17       30.44R WCI  -5
ELKO           CLOUDY     8   5  87 SE5       30.49R FOG     WCI   0
POCATELLO, ID  CLOUDY    15  13  91 CALM      30.44R FOG
BURLEY         PTSUNNY   26  23  88 NE3       30.38R
EVANSTON, WY   CLOUDY    25  13  60 S7        30.40R WCI  17
ROCK SPRINGS   CLOUDY    30  15  53 W12       30.35S WCI  20

$$




USA.gov is the U.S. government's official web portal to all federal, state and local government web resources and services.